Regional Weather Roundup
Issued by NWS Kansas City/Pleasant Hill, MO

Home | Current Version | Previous Version | Graphics & Text | Print | Product List | Glossary Off
Versions: 1 2 3 4 5 6 7 8 9 10 11 12 13 14 15 16 17 18 19 20 21 22 23 24 25 26 27 28

000
ASUS43 KEAX 291610
RWREAX

WEATHER ROUNDUP FOR EASTERN KANSAS AND NORTHWEST MISSOURI
NATIONAL WEATHER SERVICE KANSAS CITY/PLEASANT HILL MO
1100 AM CDT SUN MAY 29 2016

KSZ040-057-103>105-MOZ028-029-037-043-291700-
...KANSAS CITY METROPOLITAN AREA...

CITY           SKY/WX    TMP DP  RH WIND       PRES   REMARKS
K.C. INTL      MOSUNNY   77  62  59 W8        30.13R
K.C. DOWNTOWN  SUNNY     80  64  58 N5        30.11R
LEES SUMMIT    SUNNY     80  60  50 W6        30.12S
OLATHE - IXD   SUNNY     80  58  46 W7        30.13R
OLATHE - OJC   SUNNY     79  58  48 W8        30.13R
LAWRENCE       SUNNY     80  64  58 VRB6      30.12R

$$

MOZ001>008-011>017-020>025-030>033-038>040-044>046-053-054-291700-
...NORTHERN AND CENTRAL MISSOURI...

CITY           SKY/WX    TMP DP  RH WIND       PRES   REMARKS
ST. JOSEPH     SUNNY     76  61  59 SW5       30.11S
MOSBY          SUNNY     77  61  57 W7        30.12R
WARRENSBURG    SUNNY     79  59  50 W6        30.12S
WHITEMAN AFB   SUNNY     80  62  53 W8        30.12R
CLINTON        MOSUNNY   79  68  69 SW9       30.14R
SEDALIA        SUNNY     82  63  52 W7        30.14R
WARSAW         NOT AVBL
CHILLICOTHE      N/A     79  63  57 VRB7      30.12R
KIRKSVILLE     SUNNY     76  59  55 W8        30.11S

$$

MOZ041-047>049-056>058-063>065-088>090-097-291700-
...EASTERN AND SOUTHERN MISSOURI...

CITY           SKY/WX    TMP DP  RH WIND       PRES   REMARKS
ST. LOUIS INTL MOSUNNY   83  61  47 NW9       30.11S
SPIRIT OF STL  MOSUNNY   81  62  52 CALM      30.10R
COLUMBIA       SUNNY     81  63  54 W7        30.13R
JEFFERSON CITY SUNNY     81  64  56 CALM      30.11R
ROLLA          MOSUNNY   77  62  59 W10       30.13R
SPRINGFIELD    CLOUDY    78  66  66 W9        30.15S
BRANSON        CLOUDY    77  68  73 NW7       30.17F
JOPLIN         MOSUNNY   78  70  76 W7        30.15S
WEST PLAINS    CLOUDY    80  63  55 N5        30.16F

$$

IAZ060-094-KSZ022-034>040-054-083-096-NEZ052-066-093-291700-
...KANSAS...SOUTHEAST NEBRASKA AND IOWA...

CITY           SKY/WX    TMP DP  RH WIND       PRES   REMARKS
TOPEKA         SUNNY     82  60  47 SW6       30.11S
MANHATTAN      SUNNY     80  61  52 S7        30.11S
EMPORIA        SUNNY     81  64  56 W6        30.13R
CHANUTE        MOSUNNY   80  70  71 W8        30.13S
WICHITA        MOSUNNY   81  71  71 S5        30.11F
OMAHA          PTSUNNY   72  57  59 S6        30.09F
LINCOLN        SUNNY     74  61  63 VRB3      30.10S
FALLS CITY     PTSUNNY   77  62  59 SW9       30.10S
LAMONI           N/A     74  59  59 W10       30.11R
DES MOINES     MOSUNNY   74  58  57 W9        30.08S

$$





USA.gov is the U.S. government's official web portal to all federal, state and local government web resources and services.